Regional Weather Roundup
Issued by NWS

Home | Current Version | Previous Version | Graphics & Text | Print | Product List | Glossary Off
Versions: 1 2 3 4 5 6 7 8 9 10 11 12 13 14 15 16 17 18 19 20 21 22 23 24 25 26 27 28 29 30 31 32 33 34 35 36 37 38 39 40 41 42 43 44 45 46 47 48 49 50

000
ASUS43 KMKX 230611
RWRWI

WISCONSIN REGIONAL WEATHER ROUNDUP
NATIONAL WEATHER SERVICE MILWAUKEE/SULLIVAN WI
100 AM CDT TUE SEP 23 2014

NOTE: "FAIR" INDICATES FEW OR NO CLOUDS BELOW 12,000 FEET WITH NO
SIGNIFICANT WEATHER AND/OR OBSTRUCTIONS TO VISIBILITY.

WIZ001-002-006>008-014>016-023>028-230700-
NORTHWEST WISCONSIN

CITY           SKY/WX    TMP DP  RH WIND       PRES   REMARKS
SUPERIOR ARPT  CLEAR     51  50  95 SW6       30.15S
6HR MIN TEMP:  51; 6HR MAX TEMP:  65;

ASHLAND        CLEAR     55  51  86 SW8       30.17R
6HR MIN TEMP:  54; 6HR MAX TEMP:  60;

HAYWARD        CLEAR     46  45  96 CALM      30.19S
6HR MIN TEMP:  46; 6HR MAX TEMP:  65;

SIREN          CLEAR     48  47  95 CALM      30.18S
6HR MIN TEMP:  48; 6HR MAX TEMP:  64;

CUMBERLAND     FOG       45  43  93 CALM      30.20R VSB 1/2
RICE LAKE      FOG       47  46  96 CALM      30.21S VSB 1/4
6HR MIN TEMP:  47; 6HR MAX TEMP:  64;

CHETEK         PTCLDY    47  47 100 CALM      30.20S
6HR MIN TEMP:  47; 6HR MAX TEMP:  60;

LADYSMITH      CLEAR     47  46  96 CALM      30.22S
6HR MIN TEMP:  47; 6HR MAX TEMP:  62;

EAU CLAIRE     PTCLDY    47  46  97 CALM      30.20S FOG
6HR MIN TEMP:  47; 6HR MAX TEMP:  63;

MENOMONIE      CLEAR     49  47  95 CALM      30.20S
6HR MIN TEMP:  49; 6HR MAX TEMP:  65;

NEW RICHMOND   CLEAR     49  48  97 S3        30.19S
6HR MIN TEMP:  49; 6HR MAX TEMP:  64;

OSCEOLA        CLEAR     51  51 100 CALM      30.21S
6HR MIN TEMP:  49; 6HR MAX TEMP:  65;

$$

WIZ003>005-009-010-017-018-230700-
NORTH CENTRAL WISCONSIN

CITY           SKY/WX    TMP DP  RH WIND       PRES   REMARKS
MANITOWISH WTR CLEAR     45  45 100 CALM      30.19S
6HR MIN TEMP:  44; 6HR MAX TEMP:  59;

ARBOR VITAE    CLEAR     47  45  92 CALM      30.20R
6HR MIN TEMP:  47; 6HR MAX TEMP:  59;

WOODRUFF       CLEAR     47  45  92 CALM      30.20R
6HR MIN TEMP:  47; 6HR MAX TEMP:  59;

RHINELANDER    CLEAR     48  47  96 W6        30.21R
6HR MIN TEMP:  48; 6HR MAX TEMP:  55;

EAGLE RIVER    CLEAR     46  46 100 W5        30.19R FOG
6HR MIN TEMP:  45; 6HR MAX TEMP:  55;

LAND O LAKES   CLEAR     41  41 100 CALM      30.20R
6HR MIN TEMP:  40; 6HR MAX TEMP:  56;

PHILLIPS       CLEAR     45  44  98 CALM      30.20S
6HR MIN TEMP:  44; 6HR MAX TEMP:  56;

TOMAHAWK       CLEAR     43  42  97 CALM      30.21S
6HR MIN TEMP:  42; 6HR MAX TEMP:  57;

MEDFORD        FOG       45  45  99 CALM      30.21S VSB 1/2
6HR MIN TEMP:  44; 6HR MAX TEMP:  58;

MERRILL        FOG       41  41 100 CALM      30.21S VSB 1/2
6HR MIN TEMP:  41; 6HR MAX TEMP:  57;

$$

WIZ029-030-035-036-043>047-230700-
CENTRAL WISCONSIN

CITY           SKY/WX    TMP DP  RH WIND       PRES   REMARKS
WAUSAU         CLEAR     49  48  97 NE3       30.20S
6HR MIN TEMP:  49; 6HR MAX TEMP:  60;

MOSINEE        CLEAR     46  46 100 SW3       30.23S
MARSHFIELD     FOG       48  46  93 CALM      30.21S VSB 3/4
6HR MIN TEMP:  48; 6HR MAX TEMP:  61;

STEVENS POINT  CLEAR     44  43  97 CALM      30.22S
6HR MIN TEMP:  43; 6HR MAX TEMP:  60;

WAUPACA        CLEAR     49  48  95 CALM      30.22S
6HR MIN TEMP:  49; 6HR MAX TEMP:  63;

WAUTOMA        CLEAR     44  43  97 CALM      30.23S
6HR MIN TEMP:  44; 6HR MAX TEMP:  62;

WISC RAPIDS    CLEAR     47  45  93 CALM      30.23S FOG
6HR MIN TEMP:  47; 6HR MAX TEMP:  62;

CAMP DOUGLAS   FOG       39  39 100 CALM      30.22S VSB 1/2
6HR MIN TEMP:  39; 6HR MAX TEMP:  59;

$$

WIZ011>013-019>022-031-037>040-048>050-230700-
NORTHEAST WISCONSIN

CITY           SKY/WX    TMP DP  RH WIND       PRES   REMARKS
ANTIGO         CLEAR     50  48  93 W6        30.21S
6HR MIN TEMP:  47; 6HR MAX TEMP:  56;

SHAWANO        CLEAR     51  49  92 CALM      30.20S
6HR MIN TEMP:  51; 6HR MAX TEMP:  63;

OCONTO         CLEAR     48  48 100 W3        30.18S
6HR MIN TEMP:  47; 6HR MAX TEMP:  59;

STURGEON BAY   CLEAR     55  48  76 W5        30.20R
6HR MIN TEMP:  54; 6HR MAX TEMP:  61;

GREEN BAY      CLEAR     49  47  93 CALM      30.21R
6HR MIN TEMP:  48; 6HR MAX TEMP:  60;

MANITOWOC      CLEAR     52  50  93 CALM      30.21F
6HR MIN TEMP:  50; 6HR MAX TEMP:  63;

APPLETON       CLEAR     50  48  93 W5        30.22R
CLINTONVILLE   CLEAR     46  46 100 CALM      30.21S
OSHKOSH        CLEAR     54  49  83 SW3       30.22S
6HR MIN TEMP:  51; 6HR MAX TEMP:  62;

$$

WIZ032>034-041-042-053>061-230700-
SOUTHWEST WISCONSIN

CITY           SKY/WX    TMP DP  RH WIND       PRES   REMARKS
LA CROSSE      CLEAR     53  51  93 SE6       30.22S
6HR MIN TEMP:  53; 6HR MAX TEMP:  65;

SPARTA         CLEAR     41  41 100 CALM      30.24R
VIROQUA        CLEAR     53  49  86 SW3       30.24R
6HR MIN TEMP:  51; 6HR MAX TEMP:  60;

BOSCOBEL       FOG       48  46  93 CALM      30.24S VSB 1/4
6HR MIN TEMP:  47; 6HR MAX TEMP:  64;

PRAIRIE DU CHI CLEAR     49  47  94 E3        30.24R
6HR MIN TEMP:  49; 6HR MAX TEMP:  65;

PLATTEVILLE    CLEAR     51  47  86 S6        30.26R
6HR MIN TEMP:  51; 6HR MAX TEMP:  63;

$$

WIZ056-057-062-063-064-067-068-230700-
SOUTH CENTRAL WISCONSIN

CITY           SKY/WX    TMP DP  RH WIND       PRES   REMARKS
REEDSBURG      CLEAR     47  46  99 CALM      30.23S
6HR MIN TEMP:  46; 6HR MAX TEMP:  61;

BARABOO/DELLS  CLEAR     48  47  93 CALM      30.23S
6HR MIN TEMP:  48; 6HR MAX TEMP:  62;

LONE ROCK      PTCLDY    49  44  83 CALM      30.24S
6HR MIN TEMP:  49; 6HR MAX TEMP:  65;

MINERAL POINT  CLEAR     54  46  76 S5        30.24S
MADISON        CLEAR     49  47  93 CALM      30.24S
6HR MIN TEMP:  49; 6HR MAX TEMP:  60;

MIDDLETON      CLEAR     47  47  99 CALM      30.24S
6HR MIN TEMP:  46; 6HR MAX TEMP:  60;

WATERTOWN      CLEAR     46  45  98 CALM      30.24R
6HR MIN TEMP:  45; 6HR MAX TEMP:  62;

MONROE         CLEAR     52  46  82 SW8       30.25S
JANESVILLE     CLEAR     46  45  93 SE3       30.25R
$$

WIZ051-052-058>065-066-070>072-230700-
SOUTHEAST WISCONSIN

CITY           SKY/WX    TMP DP  RH WIND       PRES   REMARKS
MILWAUKEE      CLEAR     54  47  77 S5        30.25S
6HR MIN TEMP:  53; 6HR MAX TEMP:  66;

WAUKESHA       CLEAR     46  45  93 CALM      30.26R
MILWAUKEE/TIMM CLEAR     46  45  93 CALM      30.25S
RACINE         CLEAR     52  46  80 SW5       30.27R
6HR MIN TEMP:  51; 6HR MAX TEMP:  58;

BURLINGTON     CLEAR     42  42 100 CALM      30.25S
6HR MIN TEMP:  41; 6HR MAX TEMP:  56;

KENOSHA        CLEAR     47  45  93 SW3       30.26S
6HR MIN TEMP:  47; 6HR MAX TEMP:  63;

FOND DU LAC    CLEAR     50  47  89 SW5       30.23S
6HR MIN TEMP:  50; 6HR MAX TEMP:  62;

SHEBOYGAN      CLEAR     47  46  97 S5        30.22S
6HR MIN TEMP:  47; 6HR MAX TEMP:  58;

WEST BEND      CLEAR     46  43  87 CALM      30.24R
JUNEAU         CLEAR     49  47  92 SE3       30.25R
6HR MIN TEMP:  49; 6HR MAX TEMP:  58;

$$

LSZ147-162-230700-
LAKE SUPERIOR

STATION/POSITION TIME  TEMP    WIND        PRES    WAVE
                       AIR SEA DIR/SP/G            HT/PER
                 (UTC) (F)     (DEG/KT/KT) (MB)    (FT/S)
W MID LAKE BUOY  0550   52 48  240/ 12/ 14 1019.5R   2/ 4
DEVILS ISLAND    0600   57     240/ 15/ 17 1020.4R
PORT WING        0500   58     180/  5/  6 1021.0
SAXON HARBOR     0540   60     200/  8/ 12 1021.0S
$$

LMZ867-665-643>646-230700-
LAKE MICHIGAN

STATION/POSITION TIME  TEMP    WIND        PRES    WAVE



USA.gov is the U.S. government's official web portal to all federal, state and local government web resources and services.